Orbital Elements at Epoch 2459200.5 (2020-Dec-17.0) TDB
Reference: JPL 20 (heliocentric ecliptic J2000)
Element | Value | Uncertainty (1-sigma) | Units |
e | .08331724095509804 | 5.78e-08 | |
a | 2.774431328898988 | 1.8158e-08 | au |
q | 2.543273365355738 | 1.5816e-07 | au |
i | 1.423284767802294 | 4.7497e-06 | deg |
node | 66.07139471296037 | 0.0002196 | deg |
peri | 294.1480374987782 | 0.00022148 | deg |
M | 127.3775080863539 | 2.7909e-05 | deg |
tp | 2458603.258958195229 (2019-Apr-29.75895820) | 0.00013018 | TDB |
period | 1687.949295600574 4.62 | 1.6571e-05 4.537e-08 | d yr |
n | .2132765486133347 | 2.0937e-09 | deg/d |
Q | 3.005589292442238 | 1.9671e-08 | au |
|
| | Orbit Determination Parameters
Additional Information
|